Location: Alberta Star Party
(51.6612°N, 112.9089°W)
Time: 07:39:35
(UTC-06:00)

Amateur Radio Satellites - All Passes

Search period start: 27 May 2017 07:09
Search period end: 28 May 2017 07:09
Location: Alberta Star Party, 51.6612°N, 112.9089°W

Satellite Date Start Highest point End Downlink Frequencies (MHz)
Time Altitude Azimuth
DOVE 4 27 May 07:10:04 07:14:06 48° 99° (E) 07:18:13 437.250
SO-50 27 May 07:13:57 07:18:30 89° 212° (SSW) 07:23:02 436.795
CUTE-I 27 May 07:14:25 07:19:08 31° 94° (E) 07:23:50 437.470
STARS 27 May 07:16:11 07:18:44 15° 271° (W) 07:21:17 437.465
XW-2D 27 May 07:36:04 07:39:53 53° 100° (E) 07:43:39 145.860 - 145.880
M-CUBED/EXP-1 PRIME 27 May 07:36:53 07:40:08 24° 57° (ENE) 07:43:11 437.505
XW-2B 27 May 07:44:01 07:47:53 63° 102° (ESE) 07:51:41 145.730 - 145.750
AO-85 27 May 07:47:17 07:50:37 24° 330° (NNW) 07:53:54 145.980
AO-7 27 May 07:48:59 07:55:45 29° 316° (NW) 08:02:32 .
NUDT-PHONESAT 27 May 07:53:07 07:56:53 63° 101° (E) 08:00:38 437.300
XW-2F 27 May 07:56:08 08:00:01 83° 101° (E) 08:03:51 145.980 - 146.000
XW-2C 27 May 07:57:42 08:01:37 89° 106° (ESE) 08:05:28 145.795 - 145.815
CUBEBUG 2 27 May 08:00:48 08:01:54 11° 84° (E) 08:03:01 437.445
KAITUO 1B 27 May 08:02:35 08:06:26 81° 106° (ESE) 08:10:13 145.475/437.950
SEEDS 27 May 08:03:24 08:05:22 13° 86° (E) 08:07:19 437.485
BEESAT 2 27 May 08:09:48 08:13:46 58° 317° (NW) 08:17:47 435.950
XW-2A 27 May 08:13:23 08:15:45 17° 92° (E) 08:18:05 145.665 - 145.685
STRAND 1 27 May 08:21:29 08:26:29 56° 259° (W) 08:31:33 437.568
BEESAT 3 27 May 08:29:27 08:32:51 25° 330° (NNW) 08:36:15 437.485
LilacSat-2 27 May 08:36:55 08:40:30 35° 292° (WNW) 08:44:03 437.200
HO-68 27 May 08:42:49 08:49:46 48° 99° (E) 08:56:41 435.675
RS-15 27 May 08:44:29 08:56:21 47° 13° (NNE) 09:07:54 29.354- 29.394
TIGRISAT 27 May 08:48:17 08:49:29 11° 51° (NE) 08:50:41 435.000
DOVE 4 27 May 08:48:23 08:51:35 22° 298° (WNW) 08:54:49 437.250
FO-29 27 May 08:48:39 08:51:57 17° 50° (NE) 08:55:23 435.910
CUTE 1.7 + AOD 2 27 May 08:49:33 08:53:44 51° 99° (E) 08:57:52 437.475
CUTE-I 27 May 08:54:16 08:59:24 49° 294° (WNW) 09:04:31 437.470
SO-50 27 May 08:55:37 08:58:20 16° 248° (WSW) 09:01:04 436.795
AAUSAT CUBESAT 2 27 May 08:59:56 09:03:15 23° 92° (E) 09:06:33 437.432
AO-73 27 May 09:05:38 09:08:25 16° 88° (E) 09:11:12 145.935
M-CUBED/EXP-1 PRIME 27 May 09:10:27 09:14:25 45° 254° (WSW) 09:18:08 437.505
XW-2D 27 May 09:11:02 09:13:44 18° 299° (WNW) 09:16:25 145.860 - 145.880
PRISM 27 May 09:11:54 09:15:01 21° 61° (ENE) 09:18:08 437.425
UNISAT 6 27 May 09:17:52 09:21:01 20° 59° (ENE) 09:24:15 437.425
XW-2B 27 May 09:19:13 09:21:39 16° 300° (WNW) 09:24:04 145.730 - 145.750
ZACube-1 27 May 09:19:29 09:23:06 23° 91° (E) 09:26:43 437.345
NUDT-PHONESAT 27 May 09:28:04 09:30:23 16° 300° (WNW) 09:32:41 437.300
AO-85 27 May 09:30:29 09:32:19 13° 355° (N) 09:34:10 145.980
XW-2F 27 May 09:31:45 09:33:36 13° 302° (WNW) 09:35:26 145.980 - 146.000
XW-2C 27 May 09:33:34 09:35:12 12° 303° (WNW) 09:36:50 145.795 - 145.815
CUBEBUG 2 27 May 09:34:43 09:39:17 74° 103° (ESE) 09:43:57 437.445
SEEDS 27 May 09:37:24 09:41:39 82° 285° (WNW) 09:45:51 437.485
KAITUO 1B 27 May 09:38:04 09:39:53 13° 302° (WNW) 09:41:42 145.475/437.950
NO-84 27 May 09:39:52 09:43:45 32° 140° (SE) 09:47:33 435.350 FM
AO-7 27 May 09:42:48 09:45:51 12° 342° (NNW) 09:48:55 .
UWE-3 27 May 09:43:29 09:48:00 58° 100° (E) 09:52:35 435.000/436.395/437.385
XW-2A 27 May 09:45:25 09:48:41 41° 290° (WNW) 09:51:58 145.665 - 145.685
BEESAT 2 27 May 09:49:28 09:52:19 18° 339° (NNW) 09:55:12 435.950
BEESAT 3 27 May 10:09:44 10:11:44 13° 353° (N) 10:13:43 437.485
Oscar 11 27 May 10:13:10 10:17:25 49° 99° (E) 10:21:39 .
TIGRISAT 27 May 10:21:03 10:25:18 64° 72° (ENE) 10:29:39 435.000
AIST 2D 27 May 10:22:22 10:22:46 10° 57° (ENE) 10:23:11 435.315
CUTE 1.7 + AOD 2 27 May 10:25:57 10:29:17 22° 299° (WNW) 10:32:36 437.475
HO-68 27 May 10:30:44 10:37:32 47° 300° (WNW) 10:44:20 435.675
FO-29 27 May 10:31:02 10:36:13 84° 74° (ENE) 10:41:44 435.910
AAUSAT CUBESAT 2 27 May 10:34:58 10:38:55 43° 291° (WNW) 10:42:50 437.432
CUTE-I 27 May 10:36:43 10:38:17 11° 315° (NW) 10:39:51 437.470
QB50P2 27 May 10:37:27 10:39:11 12° 54° (NE) 10:40:56 145.880/145.840
EO-88 27 May 10:38:36 10:41:20 19° 92° (E) 10:44:02 145.990 - 145.960
AO-73 27 May 10:40:37 10:45:11 76° 286° (WNW) 10:49:45 145.935
PRISM 27 May 10:45:59 10:50:00 51° 258° (WSW) 10:54:04 437.425
DELFI C3 27 May 10:46:36 10:50:11 32° 96° (E) 10:53:44 145.870
YUBILEINY 27 May 10:49:38 10:56:02 21° 50° (NE) 11:02:25 435.215
UNISAT 6 27 May 10:53:06 10:57:21 60° 259° (W) 11:01:43 437.425
ZACube-1 27 May 10:55:14 10:59:39 52° 290° (WNW) 11:04:06 437.345
RS-15 27 May 10:58:23 11:10:50 80° 44° (NE) 11:22:42 29.354- 29.394
AO-85 27 May 11:11:37 11:14:15 17° 20° (NNE) 11:16:54 145.980
CUBEBUG 2 27 May 11:12:18 11:15:26 19° 301° (WNW) 11:18:38 437.445
EO-79 27 May 11:12:28 11:15:42 22° 61° (ENE) 11:18:58 145.935-145.965
SEEDS 27 May 11:14:45 11:16:40 13° 305° (NW) 11:18:34 437.485
NO-84 27 May 11:16:50 11:21:10 81° 338° (NNW) 11:25:17 435.350 FM
UWE-3 27 May 11:20:35 11:24:08 23° 299° (WNW) 11:27:43 435.000/436.395/437.385
BEESAT 2 27 May 11:29:38 11:31:35 13° 3° (N) 11:33:31 435.950
AO-7 27 May 11:33:27 11:35:02 11° 10° (N) 11:36:38 .
BEESAT 3 27 May 11:48:18 11:50:51 16° 17° (NNE) 11:53:24 437.485
Oscar 11 27 May 11:49:49 11:53:18 24° 298° (WNW) 11:56:46 .
AIST 2D 27 May 11:51:49 11:55:21 85° 76° (ENE) 11:58:56 435.315
O/OREOS (USA 219) 27 May 11:55:56 11:58:00 13° 33° (NNE) 12:00:04 437.305
NANOSAT C BR1 27 May 11:56:09 12:00:11 48° 69° (ENE) 12:04:15 145.865
TIGRISAT 27 May 11:59:39 12:02:28 17° 271° (W) 12:05:21 435.000
POLYITAN 1 27 May 12:01:25 12:05:32 59° 71° (ENE) 12:09:43 437.675
Gurwin Techsat 1B 27 May 12:06:13 12:07:01 10° 44° (NE) 12:07:48 435.225
DUCHIFAT 1 27 May 12:06:19 12:10:23 55° 71° (ENE) 12:14:31 145.980
QB50P2 27 May 12:10:04 12:14:16 78° 73° (ENE) 12:18:31 145.880/145.840
EO-88 27 May 12:11:42 12:15:12 42° 291° (WNW) 12:18:42 145.990 - 145.960
ESTCUBE 1 27 May 12:12:22 12:15:53 22° 91° (E) 12:19:22 437.505/2401.250
Oscar 19 27 May 12:18:24 12:21:47 18° 53° (NE) 12:25:10 437.125/150
AO-73 27 May 12:18:29 12:20:41 14° 306° (NW) 12:22:54 145.935
FO-29 27 May 12:19:05 12:22:15 16° 275° (W) 12:25:31 435.910
HO-68 27 May 12:19:55 12:23:38 15° 323° (NW) 12:27:20 435.675
DELFI C3 27 May 12:21:30 12:24:55 28° 295° (WNW) 12:28:18 145.870
BUGSAT 1 27 May 12:21:38 12:25:04 28° 64° (ENE) 12:28:33 437.445
YUBILEINY 27 May 12:45:54 12:54:47 70° 76° (ENE) 13:03:35 435.215
EO-79 27 May 12:47:06 12:51:11 50° 260° (W) 12:55:19 145.935-145.965
AO-85 27 May 12:51:34 12:55:27 52° 42° (NE) 12:59:29 145.980
LO-87 27 May 12:51:45 12:55:20 87° 103° (ESE) 12:58:54 145.935 - 145.965
SPROUT 27 May 12:52:10 12:54:46 16° 88° (E) 12:57:21 437.525
NO-84 27 May 12:54:58 12:59:06 51° 359° (N) 13:02:56 435.350 FM
VELOX 1 27 May 13:04:25 13:07:38 20° 91° (E) 13:10:51 145.980
BEESAT 2 27 May 13:07:33 13:10:45 22° 26° (NNE) 13:13:56 435.950
RS-15 27 May 13:11:31 13:22:26 41° 251° (WSW) 13:32:56 29.354- 29.394
AO-7 27 May 13:18:56 13:24:44 22° 37° (NE) 13:30:32 .
BEESAT 3 27 May 13:25:32 13:29:25 43° 39° (NE) 13:33:15 437.485
NANOSAT C BR1 27 May 13:32:57 13:36:09 21° 268° (W) 13:39:24 145.865
O/OREOS (USA 219) 27 May 13:34:04 13:38:31 51° 55° (NE) 13:42:55 437.305
DX 1 27 May 13:37:19 13:40:01 16° 89° (E) 13:42:41 434.975-435.025
POLYITAN 1 27 May 13:38:52 13:41:43 18° 270° (W) 13:44:36 437.675
Gurwin Techsat 1B 27 May 13:40:41 13:45:42 45° 65° (ENE) 13:50:46 435.225
DUCHIFAT 1 27 May 13:43:27 13:46:24 19° 269° (W) 13:49:24 145.980
QB50P2 27 May 13:48:27 13:50:37 14° 273° (W) 13:52:48 145.880/145.840
ESTCUBE 1 27 May 13:48:35 13:52:59 53° 291° (WNW) 13:57:23 437.505/2401.250
Oscar 19 27 May 13:55:12 14:00:24 85° 74° (ENE) 14:05:39 437.125/150
BUGSAT 1 27 May 13:56:43 14:00:22 34° 263° (W) 14:04:04 437.445
50 SAT 27 May 13:58:47 14:01:53 31° 97° (E) 14:04:57 437.505
SPROUT 27 May 14:26:53 14:31:09 70° 288° (WNW) 14:35:25 437.525
LO-87 27 May 14:27:10 14:28:12 11° 303° (WNW) 14:29:14 145.935 - 145.965
AO-85 27 May 14:32:19 14:35:38 25° 241° (WSW) 14:39:02 145.980
NO-84 27 May 14:32:55 14:37:00 79° 19° (NNE) 14:40:44 435.350 FM
VELOX 1 27 May 14:40:08 14:44:27 57° 290° (WNW) 14:48:44 145.980
YUBILEINY 27 May 14:43:23 14:50:58 34° 279° (W) 14:58:33 435.215
BEESAT 2 27 May 14:45:00 14:49:06 82° 48° (NE) 14:53:10 435.950
ITAMSAT 1 27 May 14:59:29 15:04:11 37° 63° (ENE) 15:08:56 435.822/435.867
UKube-1 27 May 15:02:31 15:06:50 70° 103° (ESE) 15:11:08 .
BEESAT 3 27 May 15:03:19 15:06:55 32° 240° (WSW) 15:10:28 437.485
AO-7 27 May 15:07:54 15:15:59 60° 60° (ENE) 15:24:08 .
DX 1 27 May 15:12:21 15:16:41 70° 288° (WNW) 15:20:59 434.975-435.025
O/OREOS (USA 219) 27 May 15:14:00 15:17:40 24° 256° (WSW) 15:21:16 437.305
Gurwin Techsat 1B 27 May 15:21:01 15:25:48 33° 265° (W) 15:30:38 435.225
50 SAT 27 May 15:31:56 15:34:38 22° 296° (WNW) 15:37:19 437.505
Oscar 19 27 May 15:37:07 15:40:25 17° 273° (W) 15:43:44 437.125/150
ITUPSAT 1 27 May 16:02:44 16:07:02 31° 95° (E) 16:11:19 437.325
SPROUT 27 May 16:04:51 16:06:18 12° 307° (NW) 16:07:45 437.525
MOZHAYETS 4 27 May 16:08:39 16:12:22 23° 91° (E) 16:16:02
NO-84 27 May 16:10:55 16:14:18 29° 222° (SW) 16:17:25 435.350 FM
VELOX 1 27 May 16:19:43 16:19:59 10° 310° (NW) 16:20:15 145.980
BEESAT 2 27 May 16:23:52 16:26:19 16° 247° (WSW) 16:28:45 435.950
BEESAT 27 May 16:35:19 16:40:05 60° 102° (ESE) 16:44:50 436.000
ITAMSAT 1 27 May 16:38:48 16:43:38 40° 262° (W) 16:48:32 435.822/435.867
UKube-1 27 May 16:39:29 16:42:25 18° 303° (WNW) 16:45:19 .
DOVE 4 27 May 16:45:29 16:47:52 14° 57° (ENE) 16:50:12 437.250
DX 1 27 May 16:50:29 16:52:05 12° 308° (NW) 16:53:41 434.975-435.025
KKS-1 27 May 16:56:04 16:57:01 11° 85° (E) 16:57:58 437.445
CUBESAT XI-V 27 May 16:58:13 17:00:54 15° 87° (E) 17:03:32 437.345
AO-7 27 May 17:01:25 17:09:07 41° 262° (W) 17:16:55 .
CUTE-I 27 May 17:04:10 17:07:32 17° 52° (NE) 17:10:55 437.470
XW-2F 27 May 17:10:44 17:12:04 12° 56° (NE) 17:13:23 145.980 - 146.000
XW-2C 27 May 17:12:18 17:13:57 12° 57° (ENE) 17:15:36 145.795 - 145.815
KAITUO 1B 27 May 17:16:38 17:17:44 11° 56° (NE) 17:18:49 145.475/437.950
HO-68 27 May 17:32:44 17:37:22 19° 42° (NE) 17:42:00 435.675
ITUPSAT 1 27 May 17:40:27 17:44:59 41° 294° (WNW) 17:49:29 437.325
MOZHAYETS 4 27 May 17:45:17 17:49:50 53° 290° (WNW) 17:54:20
LilacSat-2 27 May 17:49:44 17:53:03 28° 65° (ENE) 17:56:23 437.200
BEESAT 27 May 18:13:44 18:17:31 24° 301° (WNW) 18:21:18 436.000
CUTE 1.7 + AOD 2 27 May 18:14:37 18:16:06 12° 54° (NE) 18:17:36 437.475
DOVE 4 27 May 18:20:31 18:25:02 88° 245° (WSW) 18:29:21 437.250
XW-2D 27 May 18:22:05 18:25:50 56° 72° (ENE) 18:29:38 145.860 - 145.880
KKS-1 27 May 18:29:54 18:34:22 77° 105° (ESE) 18:38:48 437.445
XW-2B 27 May 18:30:02 18:33:49 66° 73° (ENE) 18:37:39 145.730 - 145.750
CUBESAT XI-V 27 May 18:34:12 18:38:54 82° 286° (WNW) 18:43:32 437.345
NUDT-PHONESAT 27 May 18:37:10 18:40:52 62° 72° (ENE) 18:44:35 437.300
CUTE-I 27 May 18:41:31 18:46:50 81° 73° (ENE) 18:52:11 437.470
XW-2F 27 May 18:41:44 18:45:33 85° 73° (ENE) 18:49:25 145.980 - 146.000
XW-2C 27 May 18:43:43 18:47:32 88° 248° (WSW) 18:51:26 145.795 - 145.815
KAITUO 1B 27 May 18:47:17 18:51:05 82° 75° (ENE) 18:54:55 145.475/437.950
XW-2A 27 May 18:50:19 18:52:20 15° 61° (ENE) 18:54:21 145.665 - 145.685
STARS 27 May 18:57:27 19:01:51 67° 103° (ESE) 19:06:13 437.465
SEEDS 27 May 18:59:43 19:02:45 19° 60° (ENE) 19:05:47 437.485
CUBEBUG 2 27 May 19:03:25 19:06:07 17° 57° (ENE) 19:08:52 437.445
PCSat 27 May 19:09:38 19:13:36 21° 108° (ESE) 19:17:35 145.827
UWE-3 27 May 19:11:52 19:14:00 14° 55° (NE) 19:16:10 435.000/436.395/437.385
HO-68 27 May 19:16:45 19:23:47 61° 64° (ENE) 19:30:52 435.675
LilacSat-2 27 May 19:23:46 19:27:15 32° 264° (W) 19:30:47 437.200
MOZHAYETS 4 27 May 19:25:26 19:26:00 10° 310° (NW) 19:26:33
Oscar 11 27 May 19:39:55 19:41:40 12° 54° (NE) 19:43:25 .
CUTE 1.7 + AOD 2 27 May 19:46:53 19:51:10 71° 74° (ENE) 19:55:28 437.475
AAUSAT CUBESAT 2 27 May 19:54:50 19:58:30 31° 66° (ENE) 20:02:13 437.432
XW-2D 27 May 19:57:58 20:00:22 16° 270° (W) 20:02:48 145.860 - 145.880
DOVE 4 27 May 20:01:40 20:03:21 12° 273° (W) 20:05:02 437.250
AO-73 27 May 20:06:05 20:09:26 23° 61° (ENE) 20:12:52 145.935
XW-2B 27 May 20:06:26 20:08:26 14° 272° (W) 20:10:29 145.730 - 145.750
KKS-1 27 May 20:07:30 20:10:24 17° 303° (WNW) 20:13:18 437.445
CUBESAT XI-V 27 May 20:13:00 20:15:34 15° 306° (NW) 20:18:05 437.345
NUDT-PHONESAT 27 May 20:13:11 20:15:10 14° 271° (W) 20:17:11 437.300
XW-2F 27 May 20:19:21 20:20:16 11° 274° (W) 20:21:12 145.980 - 146.000
ZACube-1 27 May 20:20:17 20:24:05 32° 65° (ENE) 20:27:58 437.345
XW-2A 27 May 20:21:26 20:24:43 51° 260° (W) 20:28:04 145.665 - 145.685
CUTE-I 27 May 20:23:58 20:27:33 18° 272° (W) 20:31:10 437.470
KAITUO 1B 27 May 20:24:32 20:25:39 11° 274° (W) 20:26:45 145.475/437.950
STRAND 1 27 May 20:26:23 20:31:03 34° 95° (E) 20:35:42 437.568
SEEDS 27 May 20:33:50 20:38:02 61° 259° (W) 20:42:17 437.485
STARS 27 May 20:34:40 20:37:46 19° 302° (WNW) 20:40:51 437.465
CUBEBUG 2 27 May 20:38:02 20:42:14 73° 258° (WSW) 20:46:33 437.445
ISS 27 May 20:39:03 20:39:41 10° 137° (SE) 20:40:19 437.550
UWE-3 27 May 20:45:32 20:49:45 86° 75° (ENE) 20:54:09 435.000/436.395/437.385
PCSat 27 May 20:50:57 20:56:24 82° 308° (NW) 21:01:53 145.827
HO-68 27 May 21:05:26 21:11:54 35° 265° (W) 21:18:26 435.675
Oscar 11 27 May 21:12:43 21:17:02 73° 74° (ENE) 21:21:25 .
EO-88 27 May 21:21:35 21:24:20 20° 63° (ENE) 21:27:05 145.990 - 145.960
CUTE 1.7 + AOD 2 27 May 21:24:54 21:27:29 16° 272° (W) 21:30:07 437.475
Tancredo 1 27 May 21:28:24 21:31:07 28° 150° (SSE) 21:33:49 437.200
AAUSAT CUBESAT 2 27 May 21:30:08 21:33:56 33° 264° (W) 21:37:46 437.432
DELFI C3 27 May 21:36:47 21:40:31 39° 68° (ENE) 21:44:14 145.870
AO-73 27 May 21:41:14 21:45:23 51° 261° (W) 21:49:40 145.935
ZACube-1 27 May 21:56:27 22:00:20 34° 265° (W) 22:04:20 437.345
STRAND 1 27 May 22:05:30 22:10:21 43° 295° (WNW) 22:15:12 437.568
TIGRISAT 27 May 22:10:06 22:10:16 10° 84° (E) 22:10:25 435.000
ISS 27 May 22:12:23 22:15:31 41° 155° (SSE) 22:18:39 437.550
M-CUBED/EXP-1 PRIME 27 May 22:18:03 22:21:17 44° 106° (ESE) 22:24:24 437.505
PRISM 27 May 22:22:54 22:25:11 15° 89° (E) 22:27:29 437.425
UWE-3 27 May 22:25:03 22:26:55 13° 275° (W) 22:28:47 435.000/436.395/437.385
PCSat 27 May 22:36:05 22:40:36 26° 331° (NNW) 22:45:09 145.827
UNISAT 6 27 May 22:39:27 22:42:56 21° 91° (E) 22:46:26 437.425
Oscar 11 27 May 22:51:07 22:53:43 15° 272° (W) 22:56:19 .
EO-88 27 May 22:54:16 22:57:46 42° 261° (W) 23:01:19 145.990 - 145.960
Tancredo 1 27 May 23:03:33 23:06:37 80° 171° (S) 23:09:42 437.200
DELFI C3 27 May 23:12:10 23:15:26 24° 267° (W) 23:18:42 145.870
SO-50 27 May 23:13:02 23:17:21 43° 123° (ESE) 23:21:40 436.795
ESTCUBE 1 27 May 23:16:36 23:20:48 38° 66° (ENE) 23:25:01 437.505/2401.250
FO-29 27 May 23:17:22 23:23:31 50° 99° (E) 23:30:24 435.910
LO-87 27 May 23:32:36 23:36:09 80° 75° (ENE) 23:39:42 145.935 - 145.965
TIGRISAT 27 May 23:43:11 23:47:46 69° 102° (ESE) 23:52:26 435.000
ISS 27 May 23:48:34 23:51:53 89° 154° (SSE) 23:55:11 437.550
SPROUT 27 May 23:50:18 23:53:42 24° 62° (ENE) 23:57:08 437.525
M-CUBED/EXP-1 PRIME 27 May 23:53:14 23:55:29 17° 306° (NW) 23:57:43 437.505
PRISM 27 May 23:56:53 00:00:57 69° 288° (WNW) 00:04:59 437.425
YUBILEINY 28 May 00:01:55 00:06:46 16° 70° (ENE) 00:11:39 435.215
VELOX 1 28 May 00:06:21 00:10:20 34° 65° (ENE) 00:14:19 145.980
UNISAT 6 28 May 00:15:28 00:19:59 59° 289° (WNW) 00:24:34 437.425
PCSat 28 May 00:22:36 00:25:54 16° 357° (N) 00:29:12 145.827
EO-79 28 May 00:26:47 00:29:47 18° 90° (E) 00:32:47 145.935-145.965
UKube-1 28 May 00:27:42 00:30:36 18° 57° (ENE) 00:33:31 .
50 SAT 28 May 00:36:02 00:39:05 29° 67° (ENE) 00:42:08 437.505
DX 1 28 May 00:37:26 00:41:08 28° 63° (ENE) 00:44:51 434.975-435.025
Tancredo 1 28 May 00:39:18 00:42:23 82° 192° (SSW) 00:45:27 437.200
AIST 2D 28 May 00:44:42 00:48:11 48° 99° (E) 00:51:39 435.315
SO-50 28 May 00:53:35 00:57:54 40° 324° (NW) 01:02:11 436.795
ESTCUBE 1 28 May 00:53:38 00:57:40 31° 265° (W) 01:01:44 437.505/2401.250
FO-29 28 May 01:02:45 01:08:32 41° 297° (WNW) 01:14:59 435.910
NANOSAT C BR1 28 May 01:10:22 01:14:25 42° 98° (E) 01:18:29 145.865
POLYITAN 1 28 May 01:16:16 01:20:29 52° 100° (E) 01:24:41 437.675
DUCHIFAT 1 28 May 01:20:13 01:24:20 47° 99° (E) 01:28:26 145.980
TIGRISAT 28 May 01:20:44 01:24:02 20° 301° (WNW) 01:27:22 435.000
QB50P2 28 May 01:25:01 01:29:18 69° 103° (ESE) 01:33:33 145.880/145.840
ISS 28 May 01:25:05 01:28:22 71° 195° (SSW) 01:31:39 437.550
SPROUT 28 May 01:25:18 01:29:23 46° 261° (W) 01:33:30 437.525
RS-15 28 May 01:30:42 01:39:58 27° 100° (E) 01:49:20 29.354- 29.394
BUGSAT 1 28 May 01:32:43 01:36:02 23° 93° (E) 01:39:21 437.445
PRISM 28 May 01:34:31 01:35:28 11° 307° (NW) 01:36:25 437.425
ITUPSAT 1 28 May 01:40:03 01:42:11 13° 50° (NE) 01:44:19 437.325
VELOX 1 28 May 01:42:47 01:46:48 33° 264° (W) 01:50:49 145.980
YUBILEINY 28 May 01:53:12 02:01:47 66° 93° (E) 02:10:28 435.215
Gurwin Techsat 1B 28 May 01:53:39 01:55:04 11° 83° (E) 01:56:29 435.225
UNISAT 6 28 May 01:54:34 01:55:49 11° 309° (NW) 01:57:04 437.425
EO-79 28 May 02:01:43 02:05:55 58° 289° (WNW) 02:10:07 145.935-145.965
UKube-1 28 May 02:01:52 02:06:10 71° 256° (WSW) 02:10:30 .
Oscar 19 28 May 02:02:00 02:05:47 20° 89° (E) 02:09:33 437.125/150
PCSat 28 May 02:07:08 02:11:20 22° 23° (NNE) 02:15:30 145.827
50 SAT 28 May 02:09:07 02:11:58 24° 265° (W) 02:14:50 437.505
BEESAT 28 May 02:10:42 02:14:17 22° 58° (ENE) 02:17:54 436.000
DX 1 28 May 02:13:06 02:17:12 40° 262° (W) 02:21:20 434.975-435.025
Tancredo 1 28 May 02:15:11 02:17:55 29° 209° (SSW) 02:20:39 437.200
AIST 2D 28 May 02:18:41 02:21:05 17° 298° (WNW) 02:23:29 435.315
SO-50 28 May 02:36:21 02:39:29 18° 347° (NNW) 02:42:37 436.795
NANOSAT C BR1 28 May 02:46:27 02:49:59 26° 297° (WNW) 02:53:31 145.865
FO-29 28 May 02:50:41 02:52:13 11° 318° (NW) 02:53:45 435.910
POLYITAN 1 28 May 02:52:40 02:55:58 22° 299° (WNW) 02:59:17 437.675
DUCHIFAT 1 28 May 02:56:23 02:59:46 24° 298° (WNW) 03:03:09 145.980
QB50P2 28 May 03:01:46 03:04:38 18° 302° (WNW) 03:07:31 145.880/145.840
ISS 28 May 03:01:51 03:04:32 23° 214° (SSW) 03:07:11 437.550
AO-7 28 May 03:06:28 03:08:54 11° 79° (ENE) 03:11:20 .
BUGSAT 1 28 May 03:07:39 03:11:35 44° 291° (WNW) 03:15:33 437.445
ITUPSAT 1 28 May 03:14:24 03:19:08 66° 71° (ENE) 03:23:55 437.325
MOZHAYETS 4 28 May 03:15:19 03:19:37 40° 66° (ENE) 03:23:58
Gurwin Techsat 1B 28 May 03:30:46 03:36:05 65° 102° (ESE) 03:41:21 435.225
RS-15 28 May 03:38:22 03:50:33 78° 125° (SE) 04:02:54 29.354- 29.394
Oscar 19 28 May 03:40:29 03:45:39 71° 289° (WNW) 03:50:46 437.125/150
BEESAT 28 May 03:46:54 03:51:39 66° 257° (WSW) 03:56:26 436.000
PCSat 28 May 03:50:25 03:55:50 60° 47° (NE) 04:01:12 145.827
YUBILEINY 28 May 03:51:15 03:59:13 38° 297° (WNW) 04:07:17 435.215
O/OREOS (USA 219) 28 May 03:52:52 03:56:12 20° 102° (ESE) 03:59:32 437.305
KKS-1 28 May 03:57:53 04:01:11 21° 59° (ENE) 04:04:30 437.445
CUBESAT XI-V 28 May 04:06:03 04:10:02 28° 62° (ENE) 04:14:02 437.345
SO-50 28 May 04:18:27 04:21:33 18° 12° (NNE) 04:24:39 436.795
STARS 28 May 04:24:32 04:27:29 18° 57° (ENE) 04:30:27 437.465
ITAMSAT 1 28 May 04:45:31 04:50:34 47° 100° (E) 04:55:36 435.822/435.867
AO-85 28 May 04:51:42 04:54:58 23° 118° (ESE) 04:58:08 145.980
MOZHAYETS 4 28 May 04:52:48 04:56:53 30° 266° (W) 05:01:00
ITUPSAT 1 28 May 04:53:59 04:57:26 20° 270° (W) 05:00:55 437.325
AO-7 28 May 04:55:41 05:03:49 52° 101° (ESE) 05:11:55 .
BEESAT 3 28 May 05:00:32 05:01:19 10° 109° (ESE) 05:02:05 437.485
Gurwin Techsat 1B 28 May 05:11:21 05:15:38 25° 302° (WNW) 05:19:54 435.225
Oscar 19 28 May 05:21:17 05:24:07 15° 309° (NW) 05:26:57 437.125/150
O/OREOS (USA 219) 28 May 05:30:37 05:35:11 63° 302° (WNW) 05:39:46 437.305
KKS-1 28 May 05:33:00 05:37:23 60° 258° (WSW) 05:41:47 437.445
PCSat 28 May 05:34:15 05:38:57 30° 247° (WSW) 05:43:38 145.827
CUBESAT XI-V 28 May 05:42:40 05:47:13 47° 262° (W) 05:51:46 437.345
RS-15 28 May 05:52:02 06:04:05 55° 334° (NNW) 06:16:10 29.354- 29.394
YUBILEINY 28 May 05:56:38 05:59:28 12° 327° (NNW) 06:02:17 435.215
SO-50 28 May 05:58:55 06:03:10 39° 36° (NE) 06:07:26 436.795
STARS 28 May 05:59:02 06:03:22 71° 257° (WSW) 06:07:45 437.465
STRAND 1 28 May 06:11:01 06:14:08 16° 52° (NE) 06:17:15 437.568
DOVE 4 28 May 06:14:34 06:17:00 15° 89° (E) 06:19:27 437.250
BEESAT 2 28 May 06:18:57 06:22:09 23° 117° (ESE) 06:25:24 435.950
ITAMSAT 1 28 May 06:25:18 06:29:53 32° 299° (WNW) 06:34:28 435.822/435.867
AO-85 28 May 06:31:07 06:35:05 54° 317° (NW) 06:38:59 145.980
BEESAT 3 28 May 06:34:10 06:38:08 72° 128° (SE) 06:42:10 437.485
AO-7 28 May 06:48:41 06:56:38 50° 303° (WNW) 07:04:34 .
LilacSat-2 28 May 06:51:42 06:54:36 20° 91° (E) 06:57:28 437.200
CUTE-I 28 May 06:53:36 06:57:39 21° 90° (E) 07:01:42 437.470
